Weather History for Bluefield, WV

Change the Weather History Date:

Thursday, November 21, 2013

  Actual Average Record
Temperature  
Mean Temperature 50 °F 45 °F  
Max Temperature 62 °F 53 °F 69 °F (1999)
Min Temperature 37 °F 37 °F 14 °F (1964)
Degree Days  
Heating Degree Days 15 20  
Month to date heating degree days 367 344  
Since 1 July heating degree days 675 708  
Cooling Degree Days 0 0  
Month to date cooling degree days 0 0  
Year to date cooling degree days 938 851  
Moisture  
Dew Point 38 °F    
Average Humidity 62    
Maximum Humidity 76    
Minimum Humidity 47    
Precipitation  
Precipitation 0.00 in 0.09 in 1.27 in (1991)
Month to date precipitation 0.97 1.84  
Year to date precipitation 34.81 35.87  
Snow  
Snow 0.00 in - - ()
Month to date snowfall 0.2  
Since 1 July snowfall 0.4  
Since 1 September snowfall 0.4  
Snow Depth 0.00 in    
Sea Level Pressure  
Sea Level Pressure 30.37 in    
Wind  
Wind Speed 7 mph (SSE)    
Max Wind Speed 15 mph    
Max Gust Speed 23 mph    
Visibility 10 miles    
Events      
T = Trace of Precipitation, MM = Missing Value Source: NWS Daily Summary

Daily Weather History Graph

Daily Weather History Graph

Search for Another Location

Airport:

Trip Planner

Search our weather history database for the weather conditions in past years. The results will help you decide how hot, cold, wet, or windy it might be!

Date:

Astronomy

Nov. 21, 2013 Rise Set
Actual Time 7:10 AM EST 5:10 PM EST
Civil Twilight 6:42 AM EST 5:38 PM EST
Nautical Twilight 6:10 AM EST 6:10 PM EST
Astronomical Twilight 5:39 AM EST 6:41 PM EST
Moon 8:45 PM EST (11/21) 10:16 AM EST (11/21)
Length of Visible Light 10h 56m
Length of Day
10h 00m
Waning Gibbous, 85% of the Moon is Illuminated
Nov 21
Waning Gibbous
Nov 25
Last Quarter
Dec 2
New
Dec 9
First Quarter
Dec 17
Full

Hourly Weather History & Observations

Time (EST) Temp. Windchill Dew Point Humidity Pressure Visibility Wind Dir Wind Speed Gust Speed Precip Events Conditions
12:52 AM 37.0 °F 30.4 °F 24.1 °F 59% 30.39 in 10.0 mi SE 9.2 mph 18.4 mph N/A   Clear
1:52 AM 37.0 °F 29.3 °F 25.0 °F 62% 30.39 in 10.0 mi SSE 11.5 mph 19.6 mph N/A   Clear
2:52 AM 37.0 °F 31.0 °F 26.1 °F 65% 30.39 in 10.0 mi SE 8.1 mph 16.1 mph N/A   Clear
3:52 AM 37.0 °F 32.4 °F 27.0 °F 67% 30.39 in 10.0 mi Variable 5.8 mph - N/A   Clear
4:52 AM 37.9 °F 33.5 °F 28.9 °F 70% 30.40 in 10.0 mi Variable 5.8 mph - N/A   Clear
5:52 AM 37.9 °F 32.7 °F 30.0 °F 73% 30.41 in 10.0 mi Variable 6.9 mph - N/A   Clear
6:52 AM 39.0 °F - 32.0 °F 76% 30.43 in 10.0 mi Calm Calm - N/A   Clear
7:52 AM 41.0 °F 35.2 °F 34.0 °F 76% 30.44 in 10.0 mi SE 9.2 mph - N/A   Clear
8:35 AM 44.6 °F 40.7 °F 35.6 °F 71% 30.42 in 10.0 mi SE 6.9 mph 16.1 mph N/A   Partly Cloudy
8:52 AM 45.0 °F 42.6 °F 37.0 °F 74% 30.44 in 10.0 mi Variable 4.6 mph - N/A   Partly Cloudy
9:52 AM 48.0 °F - 37.9 °F 68% 30.43 in 10.0 mi SSE 10.4 mph 18.4 mph N/A   Scattered Clouds
10:52 AM 52.0 °F - 39.0 °F 61% 30.42 in 10.0 mi Variable 3.5 mph - N/A   Clear
11:52 AM 55.0 °F - 39.0 °F 55% 30.39 in 10.0 mi SSE 6.9 mph - N/A   Clear
12:52 PM 59.0 °F - 39.9 °F 49% 30.37 in 10.0 mi SSW 5.8 mph - N/A   Clear
1:52 PM 61.0 °F - 41.0 °F 48% 30.34 in 10.0 mi South 5.8 mph - N/A   Clear
2:52 PM 59.0 °F - 41.0 °F 51% 30.32 in 10.0 mi SSE 8.1 mph - N/A   Clear
3:52 PM 60.1 °F - 42.1 °F 51% 30.31 in 10.0 mi SSE 9.2 mph 17.3 mph N/A   Clear
4:52 PM 57.9 °F - 42.1 °F 56% 30.32 in 10.0 mi Variable 6.9 mph - N/A   Clear
5:52 PM 57.0 °F - 43.0 °F 59% 30.34 in 10.0 mi South 11.5 mph - N/A   Mostly Cloudy
6:52 PM 57.0 °F - 44.1 °F 62% 30.33 in 10.0 mi South 8.1 mph - N/A   Clear
7:52 PM 57.0 °F - 45.0 °F 64% 30.32 in 10.0 mi Variable 6.9 mph - N/A   Clear
8:52 PM 55.9 °F - 46.0 °F 69% 30.32 in 10.0 mi Variable 6.9 mph - N/A   Partly Cloudy
9:19 PM 55.4 °F - 46.4 °F 72% 30.35 in 10.0 mi Calm Calm - N/A   Mostly Cloudy
9:52 PM 55.9 °F - 46.0 °F 69% 30.34 in 10.0 mi Calm Calm - N/A   Mostly Cloudy
10:20 PM 55.4 °F - 46.4 °F 72% 30.36 in 10.0 mi SSE 4.6 mph - N/A   Scattered Clouds
10:52 PM 55.9 °F - 46.0 °F 69% 30.32 in 10.0 mi South 3.5 mph - N/A   Mostly Cloudy
11:52 PM 55.9 °F - 46.0 °F 69% 30.31 in 10.0 mi South 6.9 mph - N/A   Mostly Cloudy